This demonstration page uses our WeatherBlox Daily Observations layout. Learn more.

Left ArrowRight Arrow

Hourly Observations for September 28, 2018

Temp ( °F °C ) Dew Point ( °F °C ) Humidity (%) Winds ( mph kmh ) Pressure ( in mb ) Visibility ( mi km ) Precip ( " mm )
12:54 am 00:54 Clear 57 13.9 48 8.9 72 72 N 10 17 30.06 1018 10 16 N/A
1:54 am 01:54 Mostly Clear 56 13.3 46 7.8 70 70 NNE 10 17 30.09 1019 10 16 N/A
2:54 am 02:54 Mostly Clear 55 12.8 46 7.8 72 72 N 9 15 30.09 1019 10 16 N/A
3:54 am 03:54 Mostly Cloudy 54 12.2 41 5 62 62 NNE 15 24 30.11 1020 10 16 N/A
4:54 am 04:54 Cloudy 52 11.1 42 5.6 69 69 NNE 14 22 30.12 1020 10 16 N/A
5:54 am 05:54 Cloudy with Light Rain 51 10.6 43 6.1 74 74 N 15 24 30.18 1022 10 16 N/A
6:54 am 06:54 Cloudy 50 10 40 4.4 68 68 NNE 17 28 30.20 1023 10 16 N/A
7:54 am 07:54 Cloudy 50 10 40 4.4 68 68 NNE 20 31 30.20 1023 10 16 N/A
8:54 am 08:54 Cloudy 49 9.4 41 5 74 74 NNE 8 13 30.27 1025 10 16 N/A
9:54 am 09:54 Cloudy with Light Rain 49 9.4 42 5.6 77 77 NNE 9 15 30.29 1026 10 16 N/A
10:54 am 10:54 Cloudy with Light Rain 48 8.9 42 5.6 80 80 NNE 10 17 30.33 1027 10 16 N/A
11:54 am 11:54 Cloudy 49 9.4 41 5 74 74 NNE 9 15 30.35 1028 10 16 N/A
12:54 pm 12:54 Cloudy 49 9.4 40 4.4 71 71 NE 9 15 30.36 1028 10 16 N/A
1:54 pm 13:54 Cloudy 49 9.4 39 3.9 69 69 NE 10 17 30.35 1028 10 16 N/A
2:54 pm 14:54 Cloudy 49 9.4 39 3.9 69 69 NNE 7 11 30.34 1028 10 16 N/A
3:54 pm 15:54 Cloudy 50 10 39 3.9 66 66 NE 5 7 30.34 1027 10 16 N/A
4:54 pm 16:54 Cloudy 51 10.6 39 3.9 64 64 NE 5 7 30.32 1027 10 16 N/A
5:54 pm 17:54 Cloudy 51 10.6 38 3.3 61 61 NNE 5 7 30.32 1027 10 16 N/A
6:54 pm 18:54 Mostly Cloudy 50 10 38 3.3 63 63 N N/A 30.33 1027 10 16 N/A
7:54 pm 19:54 Cloudy 49 9.4 40 4.4 71 71 ESE 3 6 30.34 1027 10 16 N/A
8:54 pm 20:54 Cloudy 50 10 39 3.9 66 66 E 3 6 30.35 1028 10 16 N/A
9:54 pm 21:54 Cloudy 49 9.4 40 4.4 71 71 ESE 5 7 30.35 1028 10 16 N/A
10:54 pm 22:54 Cloudy 49 9.4 42 5.6 77 77 S 3 6 30.35 1028 10 16 N/A
11:54 pm 23:54 Cloudy 49 9.4 43 6.1 80 80 S 3 6 30.35 1028 10 16 N/A

Powered by AerisWeather